GFSCGP_sfc_thetae_210.txt.gz
Theta_e
296 290 286 291 293 292 293 292 291 294 298 298 297 298 300 300 302 303 306 308 311 315 321 325 328 331 332 332 333 334 334 335 335 331 329 328 328 332 332 333 333 333 333 333
289 285 291 294 294 293 290 289 291 295 297 297 296 296 300 301 302 304 304 306 308 312 316 322 325 327 330 332 333 334 334 335 335 334 333 334 333 333 333 334 334 335 335 334
285 288 292 291 291 290 291 288 288 291 295 296 294 294 296 300 302 302 303 305 307 309 312 316 321 325 327 328 331 332 334 335 334 334 334 332 331 329 330 331 333 334 334 333
287 291 288 288 289 291 287 293 291 290 290 288 293 286 293 298 299 298 302 303 304 306 307 312 312 319 325 327 329 331 332 333 334 335 333 330 329 328 330 331 333 333 333 333
286 287 288 287 289 293 289 294 292 291 290 289 289 288 292 293 294 298 300 301 303 304 306 306 306 309 311 319 325 328 329 330 331 333 332 331 330 331 332 330 330 330 331 331
288 291 290 291 292 293 295 292 291 291 290 284 289 288 289 293 294 296 294 297 298 300 301 300 301 303 304 306 309 316 324 326 328 329 330 329 329 329 328 328 327 329 329 329
286 287 291 291 288 293 292 289 281 280 281 280 284 285 290 295 294 292 292 293 295 296 298 299 301 303 305 307 308 307 312 311 318 327 327 328 328 328 326 326 326 326 327 328
282 279 287 291 289 288 288 289 283 275 277 281 283 283 289 291 292 292 293 296 297 298 299 300 301 303 306 309 311 312 311 309 307 308 312 317 320 322 322 323 323 323 324 326
281 281 288 290 291 292 288 285 288 281 274 281 285 286 290 290 290 290 293 296 296 298 300 300 301 303 305 308 312 313 313 313 314 313 312 311 311 312 313 313 315 318 320 320
284 281 286 289 291 290 289 291 283 283 276 276 279 281 286 286 287 289 292 294 295 297 298 299 299 300 301 302 303 303 306 308 309 311 312 311 311 312 314 315 314 315 316 317
288 285 283 288 286 286 286 286 285 285 282 277 276 282 287 287 289 290 293 295 296 296 297 297 297 298 299 300 301 301 301 302 302 303 303 303 303 305 307 308 309 309 311 311
290 285 281 283 287 288 288 286 287 282 279 280 279 283 288 289 289 291 292 293 294 295 296 296 297 298 299 299 299 299 300 300 301 302 302 302 302 303 303 303 304 306 306 307
290 284 279 280 284 286 286 287 285 285 284 280 280 283 288 288 289 291 293 293 293 294 294 295 297 297 298 299 299 299 300 299 300 301 301 300 300 301 301 301 302 303 303 303
292 287 282 279 281 285 283 286 286 285 283 282 282 284 287 287 288 290 293 294 293 294 294 295 296 297 298 298 298 299 299 300 299 299 299 299 298 299 299 300 300 301 301 301
286 283 285 285 286 285 285 285 286 284 286 282 285 284 287 288 289 291 294 293 292 292 293 294 295 296 297 297 298 298 298 298 299 298 297 296 297 297 297 297 297 298 298 299
289 283 284 282 286 286 283 286 286 286 286 285 284 284 288 289 291 291 292 292 292 292 293 294 294 294 295 296 298 297 298 298 298 297 295 295 295 295 295 295 295 296 296 296
285 283 281 279 282 283 280 283 285 286 287 286 283 288 288 288 290 291 292 292 293 294 294 295 295 295 295 296 297 297 296 296 296 295 294 294 294 294 293 293 293 293 294 295
282 283 281 278 278 275 282 284 285 286 287 288 288 289 289 291 293 293 294 294 293 294 294 294 295 296 297 297 296 295 295 295 294 293 293 292 291 292 292 292 292 292 292 292
286 284 280 277 277 280 283 282 284 284 285 289 289 290 290 291 292 291 293 294 294 294 294 295 296 296 296 295 294 294 294 294 293 292 291 291 290 290 290 290 290 290 291 291
285 286 282 278 275 273 282 284 285 286 279 285 289 290 289 290 287 289 290 292 292 293 294 294 294 294 294 292 293 293 292 292 292 291 290 289 289 288 289 289 289 289 290 288
279 281 278 278 276 280 284 284 285 277 280 286 288 289 288 287 288 289 290 289 290 291 292 292 292 292 292 291 291 291 291 291 291 288 286 286 286 285 287 287 287 287 287 287
278 278 278 277 275 274 284 284 280 284 286 286 287 288 287 288 288 287 288 288 288 289 289 291 291 290 290 290 289 290 290 289 287 285 283 283 283 284 284 284 286 285 286 286
277 282 280 281 281 285 286 284 286 287 287 287 288 288 288 288 288 288 287 287 287 287 288 288 289 288 289 288 288 288 288 285 282 281 280 281 281 282 282 284 284 285 285 285
281 284 282 281 284 285 287 287 287 287 287 287 287 287 287 287 287 287 286 286 287 287 287 285 285 285 286 286 283 285 282 280 278 281 280 280 280 282 281 282 283 284 284 284
282 282 280 280 283 284 286 286 288 287 287 287 286 286 286 286 286 285 285 284 285 285 284 284 284 284 284 284 283 281 279 277 279 279 279 281 281 281 281 281 283 282 283 283
282 282 280 280 285 285 285 287 287 287 286 286 285 285 284 285 285 284 284 284 283 283 283 282 283 281 283 282 282 279 276 275 278 281 281 281 281 280 279 280 281 281 283 283

GFSCGP_sfc_thetae_216.txt.gz
Theta_e
295 287 284 287 288 290 288 286 286 290 294 292 291 293 298 300 298 298 301 303 306 310 319 323 325 326 329 328 330 330 328 328 327 324 323 323 323 327 328 327 328 328 328 327
289 285 290 291 289 288 286 285 285 290 293 294 293 292 297 299 299 299 300 302 304 309 314 322 324 325 326 327 329 330 329 330 331 330 329 328 329 329 330 330 331 331 329 328
285 288 292 290 288 286 285 283 284 286 291 293 293 289 293 297 300 300 302 302 303 307 311 317 323 325 325 325 326 329 330 331 332 332 331 329 329 329 329 329 329 329 330 330
287 291 289 287 286 287 282 288 289 287 286 283 290 278 289 293 296 298 299 301 301 303 310 315 319 321 326 325 328 329 331 332 333 332 330 328 328 326 326 327 328 331 332 331
285 287 286 284 286 288 285 290 289 287 285 284 287 284 286 292 292 296 298 301 301 303 305 309 317 319 315 324 328 329 331 332 332 332 331 329 328 328 328 329 329 330 331 331
287 292 290 288 290 290 291 288 288 289 286 278 283 284 283 287 292 294 294 295 300 301 300 301 304 308 308 313 317 326 328 329 329 331 331 330 328 328 324 325 326 326 327 328
285 286 290 291 287 290 288 285 277 274 273 274 284 281 284 292 291 290 290 292 293 298 297 298 301 303 305 308 313 320 324 323 327 328 327 328 327 326 325 325 325 325 325 325
281 278 287 291 288 286 286 285 278 272 274 275 283 278 285 289 291 292 294 294 294 295 298 300 302 304 304 306 309 314 316 317 320 322 322 323 324 324 324 324 324 323 323 322
281 281 289 291 291 290 286 282 288 281 275 275 280 284 289 290 289 291 293 294 294 295 297 299 303 307 307 307 308 306 306 309 311 311 313 314 314 314 313 313 314 315 317 317
287 279 286 288 291 291 288 290 281 283 269 269 276 278 280 285 286 289 291 292 293 295 297 299 302 304 304 304 303 308 309 309 310 311 311 311 311 312 312 312 311 311 311 314
289 285 282 286 284 285 284 282 285 284 281 275 274 275 284 285 287 288 291 293 293 294 295 296 297 298 300 300 301 301 302 301 301 302 302 302 302 303 303 304 304 306 306 306
290 285 279 281 288 289 289 286 286 278 278 279 278 277 288 287 289 292 292 293 292 293 293 294 295 296 296 297 298 299 299 299 300 300 301 301 301 301 300 301 301 302 302 302
289 284 276 278 282 285 283 287 288 286 283 279 277 277 288 288 289 291 290 290 291 291 292 294 294 294 295 296 296 297 297 298 299 299 298 298 298 298 298 298 299 300 300 300
290 284 283 277 280 285 281 284 286 285 278 279 280 282 286 286 287 290 289 290 290 291 292 293 293 294 295 295 295 295 296 297 297 297 296 295 295 296 296 296 297 297 297 297
286 278 282 283 285 286 284 284 284 282 284 279 282 283 288 285 285 289 290 291 291 291 292 293 293 293 294 295 295 296 296 296 296 295 295 294 295 295 294 294 294 295 295 295
285 276 280 275 283 283 281 284 285 285 284 283 284 283 289 287 287 288 291 291 290 291 292 293 293 294 295 295 295 295 295 295 295 294 293 294 293 293 292 292 292 292 292 293
282 276 270 268 280 279 271 279 281 282 285 285 280 285 286 286 289 290 290 290 291 291 292 292 292 294 295 295 296 294 294 294 293 292 292 292 292 291 291 291 291 290 291 291
277 279 272 271 271 264 279 284 284 283 284 286 287 288 289 289 289 291 291 291 292 293 293 293 294 294 295 294 293 294 294 293 292 291 290 290 289 289 289 289 288 289 289 289
285 281 275 266 265 276 279 280 281 280 281 284 284 287 289 289 288 287 292 292 292 292 294 295 295 295 294 293 293 293 292 291 290 289 288 287 287 287 286 286 286 287 287 287
284 284 278 267 263 261 277 282 285 284 277 285 287 286 287 289 283 283 289 291 292 293 294 293 293 293 292 292 292 291 290 289 288 287 285 285 285 286 286 284 284 284 285 284
268 270 274 269 267 272 280 283 283 272 276 285 288 287 286 284 285 286 288 288 289 290 290 291 290 289 289 288 288 287 287 287 286 285 284 284 283 283 284 283 283 283 283 283
272 268 270 267 264 265 282 282 278 282 284 285 287 288 288 287 286 286 286 286 287 286 286 286 287 286 287 287 286 286 286 286 284 284 283 280 280 282 283 280 282 282 282 280
271 277 273 276 275 284 283 282 285 287 284 284 285 287 288 287 286 286 286 286 286 285 284 284 283 284 284 285 285 285 285 284 281 278 276 277 278 280 280 279 280 279 279 278
279 282 277 278 281 282 285 286 287 287 286 286 285 285 287 285 285 284 284 284 284 283 283 282 282 282 281 281 281 277 279 277 273 274 275 276 275 278 277 280 280 278 277 277
278 280 279 277 281 282 284 287 288 287 284 284 284 284 284 284 283 283 283 282 282 282 281 280 279 279 277 277 276 275 275 273 274 274 274 275 276 275 276 277 277 279 278 278
279 278 276 275 282 283 283 285 286 286 284 284 283 282 282 282 282 282 281 280 278 278 277 275 274 273 272 272 272 273 273 271 270 273 274 275 275 274 274 274 274 283 283 284

GFSCGP_sfc_thetae_222.txt.gz
Theta_e
290 284 280 283 283 285 283 281 280 283 287 284 284 286 288 292 293 293 294 296 298 300 315 324 326 327 327 325 325 320 324 323 326 323 322 321 320 323 322 321 322 322 324 323
283 279 286 288 288 285 283 281 281 284 287 287 285 285 289 292 292 294 295 295 298 301 308 318 324 326 326 325 325 321 322 324 324 324 321 321 320 320 322 323 323 323 323 323
279 284 289 287 285 284 282 281 281 281 285 287 285 283 287 292 293 295 296 296 298 300 306 316 321 324 325 325 326 326 321 322 325 324 324 323 323 322 321 322 323 324 325 325
283 288 287 284 283 285 280 287 286 285 281 275 286 274 286 288 291 292 294 295 296 299 307 317 321 322 324 326 328 328 326 324 325 326 325 324 322 321 323 324 327 328 329 328
281 284 284 284 284 287 283 289 288 286 282 283 283 279 282 291 286 288 292 294 296 298 310 313 319 322 325 326 326 328 328 327 326 328 327 325 324 325 326 327 327 327 328 329
283 291 286 286 288 287 290 288 285 284 283 275 283 280 282 285 286 287 289 289 293 296 300 307 311 316 317 320 322 324 326 327 328 328 327 327 325 325 325 325 325 323 323 325
280 283 287 289 285 288 287 283 272 273 273 274 281 282 282 288 291 290 289 290 292 295 296 300 303 307 311 317 319 323 324 325 328 328 326 321 319 318 320 319 318 318 319 322
276 272 283 288 285 283 283 282 276 267 270 276 283 278 282 288 291 294 294 294 294 293 296 299 302 305 306 311 315 322 323 325 326 324 320 318 317 317 318 319 319 318 319 320
278 274 285 287 288 286 282 280 284 279 272 275 278 282 287 288 288 291 291 293 292 294 295 298 300 301 303 306 308 314 319 318 318 318 317 314 313 314 315 315 315 315 317 318
284 278 282 286 287 287 284 287 277 277 267 266 276 276 278 282 284 288 288 288 290 292 293 294 296 297 298 300 305 310 313 315 312 314 315 311 311 312 312 313 313 313 314 314
288 284 279 282 281 281 282 281 283 282 279 274 272 276 281 282 285 286 286 288 288 289 290 291 293 294 296 298 300 303 305 306 305 306 305 305 306 306 306 305 304 304 305 308
285 283 275 278 284 286 285 283 284 277 276 278 278 276 285 285 287 288 286 287 288 289 289 290 291 293 293 295 299 300 303 302 301 302 301 300 300 300 300 299 299 300 299 300
284 281 272 273 278 282 281 284 285 284 284 278 275 276 287 286 286 287 286 287 288 288 289 290 291 291 291 293 297 298 298 297 298 298 298 297 297 297 297 296 296 297 297 297
286 280 278 271 276 279 279 282 283 282 276 277 279 279 284 285 284 287 286 286 287 288 289 289 290 290 291 294 295 295 295 296 296 296 295 294 294 294 294 294 294 294 294 294
281 267 277 279 279 279 281 280 280 281 282 279 279 279 283 284 283 285 286 288 289 289 289 289 289 289 291 292 292 294 294 294 294 293 292 291 292 292 292 292 292 292 292 292
280 267 271 268 279 278 278 280 280 280 278 278 279 280 284 286 286 285 287 288 289 289 290 290 291 291 291 291 291 291 291 291 292 291 290 291 291 290 290 290 290 290 290 290
274 265 268 260 274 275 272 276 279 279 279 278 275 280 284 283 285 285 287 287 289 289 290 291 291 291 291 291 291 290 289 290 290 289 289 289 289 288 288 289 289 288 288 288
276 276 264 262 264 261 277 279 280 278 279 282 282 283 284 284 284 285 287 290 290 291 292 291 291 291 291 291 290 290 289 289 288 287 287 287 287 287 287 287 287 286 286 286
283 276 267 268 266 269 277 280 278 279 277 284 282 283 283 285 284 284 285 288 289 289 290 291 290 289 290 290 291 290 289 288 287 286 286 286 286 286 286 286 285 285 285 284
283 282 268 258 260 258 275 280 281 281 273 283 285 283 281 286 279 280 284 285 286 288 287 287 288 288 287 287 289 288 287 286 285 285 285 284 285 285 285 284 284 284 284 284
272 274 272 267 258 267 278 280 281 269 274 283 286 284 285 281 282 284 286 285 286 286 287 287 286 284 284 285 286 285 285 284 284 284 284 283 283 283 283 283 283 283 283 283
271 266 263 262 266 264 280 280 277 280 282 284 286 287 287 288 288 287 287 286 285 284 284 285 284 282 282 282 283 282 281 282 282 282 281 280 279 281 282 279 281 280 281 279
271 274 271 273 272 281 283 282 283 283 282 284 284 286 287 286 286 287 286 285 284 283 282 283 283 281 279 279 279 279 277 278 278 277 275 275 276 279 279 278 279 277 278 276
277 280 276 277 279 281 283 284 284 284 283 283 285 286 286 286 285 284 284 284 283 282 281 280 279 278 275 275 274 273 273 273 273 271 273 275 274 276 275 277 278 276 275 275
277 278 277 275 279 280 282 282 284 285 284 283 283 284 285 284 284 283 283 282 281 280 279 276 275 274 272 271 270 267 267 267 270 271 272 272 274 272 274 275 275 277 277 277
278 277 276 275 281 280 281 283 285 285 284 283 282 281 282 283 282 282 281 279 277 276 274 273 271 270 268 266 265 263 262 263 264 268 269 269 270 270 272 271 273 280 283 284

GFSCGP_sfc_thetae_228.txt.gz
Theta_e
287 283 279 280 281 282 281 278 277 281 285 285 282 283 286 289 291 291 291 292 293 293 296 298 301 317 322 321 322 328 328 327 326 324 324 324 323 322 323 323 323 321 321 321
282 279 284 287 286 283 281 280 278 282 285 286 283 283 286 288 290 291 292 293 292 292 294 296 301 317 320 322 320 324 327 327 326 325 325 322 323 322 324 324 324 322 322 321
279 283 288 285 283 282 281 279 278 280 286 284 283 280 282 289 290 293 293 294 294 294 294 296 299 315 320 320 321 321 325 327 327 327 324 321 322 322 322 323 324 323 322 323
282 286 284 283 283 283 280 283 284 283 282 274 283 275 282 286 288 291 292 293 293 295 297 302 300 312 318 321 323 324 322 325 327 327 324 323 322 321 322 324 324 324 324 323
281 282 283 282 283 285 282 286 285 285 282 277 278 277 279 287 284 287 290 293 294 296 299 302 305 310 319 321 321 323 321 322 324 326 326 324 323 324 323 323 322 323 323 324
282 286 284 284 286 286 287 284 283 283 281 270 278 280 274 282 283 288 291 292 293 295 298 300 303 308 315 317 317 318 318 319 321 321 322 322 322 322 320 321 321 322 324 325
278 281 284 287 283 285 284 279 270 268 268 271 280 276 280 286 287 288 289 290 291 295 296 296 298 302 307 312 317 320 318 318 322 322 321 320 319 318 317 317 316 315 315 315
270 270 281 286 284 283 283 281 270 263 267 272 279 273 280 288 288 290 290 290 291 292 294 295 295 298 304 308 312 317 319 318 317 318 317 319 319 318 314 314 316 314 312 313
271 273 282 285 285 285 281 278 283 279 273 274 275 278 284 287 286 288 287 289 288 290 292 294 295 296 300 306 310 317 316 314 314 316 315 315 315 314 313 314 314 314 314 314
280 272 280 284 284 284 283 286 277 276 269 264 273 275 278 281 282 284 285 286 287 290 291 292 293 294 299 305 308 310 313 311 312 312 312 311 310 311 311 311 310 311 312 310
281 280 277 281 279 280 281 281 283 281 279 273 271 274 282 281 282 282 284 286 286 288 290 292 292 294 299 302 304 306 307 308 307 305 305 304 304 304 303 302 301 303 303 303
282 281 273 276 280 282 281 280 282 275 274 278 278 275 284 283 283 284 284 286 287 288 290 292 291 293 296 298 299 301 302 302 302 302 301 300 300 299 298 298 298 298 297 297
283 274 267 272 276 279 278 281 282 280 281 277 275 274 285 285 284 284 283 285 286 287 290 291 291 291 292 295 296 297 298 298 300 299 298 297 296 296 296 295 295 295 294 293
285 277 274 269 274 277 276 277 280 279 276 277 277 277 279 281 281 283 283 285 285 287 288 290 290 290 292 292 293 295 294 295 295 295 295 293 293 292 292 292 292 292 292 291
279 265 275 277 277 277 277 278 278 278 279 275 277 275 279 280 280 281 282 286 286 287 287 288 289 289 290 289 288 291 290 291 292 291 291 290 291 291 290 290 290 290 290 289
278 266 269 264 276 277 276 278 278 278 279 276 276 276 281 282 281 280 281 285 286 286 286 287 287 287 287 287 287 288 288 289 290 288 288 288 289 289 289 289 289 289 289 288
271 265 261 261 271 272 265 274 278 278 277 279 275 278 281 280 280 280 280 283 284 285 286 286 287 287 287 286 287 285 286 287 287 287 287 288 288 287 287 287 287 287 287 287
270 263 260 261 261 260 274 276 278 278 277 280 280 280 281 281 280 281 282 282 283 284 284 285 285 286 287 287 286 286 286 285 285 284 285 285 286 286 286 286 286 286 286 285
280 273 259 261 261 267 274 277 277 277 276 281 280 281 281 281 282 280 283 284 284 283 285 284 285 286 286 286 286 285 284 284 284 283 283 284 285 285 285 284 284 284 284 283
281 277 266 262 258 258 272 279 280 280 271 281 283 281 280 281 278 277 284 284 285 286 285 285 285 284 283 283 285 283 281 281 281 281 282 282 283 283 282 282 282 282 283 283
273 271 266 267 264 265 275 279 280 267 272 281 283 281 280 279 281 284 289 288 288 287 287 287 285 282 281 281 283 280 279 278 280 281 282 282 282 282 282 282 282 282 282 282
270 267 263 262 257 262 278 279 275 278 282 283 282 285 283 285 287 289 289 287 285 284 283 284 281 279 279 279 281 279 276 276 278 279 279 279 279 281 281 279 280 279 280 278
270 272 268 270 270 278 279 280 282 283 283 283 283 284 287 286 285 286 285 284 283 281 280 280 280 278 276 275 274 275 273 273 274 275 275 275 277 278 277 278 278 276 276 275
275 277 274 274 278 278 281 282 283 282 283 284 284 284 287 284 284 284 285 284 283 281 280 278 276 275 273 272 271 270 270 269 270 272 272 273 273 273 274 276 276 274 273 273
276 278 276 274 279 279 281 282 283 283 282 282 284 284 285 284 284 284 283 282 282 281 277 274 273 273 270 269 267 265 265 265 267 269 270 270 271 269 270 272 272 275 275 275
276 276 276 275 280 281 280 282 284 283 283 283 282 282 283 284 284 283 282 281 278 275 272 271 269 268 266 265 264 263 262 263 264 267 268 268 268 268 269 269 271 278 282 284

GFSCGP_sfc_thetae_231.txt.gz
Theta_e
286 284 281 281 283 283 281 280 278 281 285 285 283 284 287 289 289 292 293 294 294 296 299 301 300 300 304 322 325 329 328 328 328 326 325 324 323 324 325 326 326 325 325 324
282 280 284 286 285 284 282 281 279 282 285 286 283 284 287 288 289 292 293 294 294 296 298 301 302 299 307 320 322 327 328 328 328 328 327 327 325 326 327 327 326 326 325 324
280 283 287 285 283 283 282 281 280 281 285 284 283 281 283 289 289 291 294 295 296 296 297 300 304 305 307 320 320 324 328 328 328 328 327 324 326 323 323 324 324 325 324 325
282 285 284 283 283 283 280 284 285 284 281 276 283 273 281 287 287 288 291 293 293 295 298 299 301 305 307 319 323 322 326 329 328 328 326 325 323 322 324 325 325 326 325 325
281 282 283 282 284 285 282 285 285 285 281 276 280 274 279 286 283 285 289 291 292 294 296 298 299 303 313 318 321 323 323 325 327 328 327 325 324 325 325 325 325 324 324 325
282 285 284 284 285 285 287 284 283 283 280 271 279 277 275 281 282 285 288 290 292 293 295 298 299 302 308 317 321 322 321 322 324 325 325 324 323 323 322 322 322 323 321 318
278 280 284 286 283 285 283 279 271 269 269 271 279 276 278 285 286 285 287 288 291 293 295 296 297 299 301 309 315 320 319 319 321 322 323 322 319 317 315 315 314 314 314 315
270 271 280 285 284 283 282 281 271 264 267 272 279 274 280 286 287 288 288 289 291 291 293 295 296 298 300 306 312 318 318 318 319 319 318 317 316 315 316 315 313 312 313 314
270 273 281 285 285 286 281 280 285 279 273 274 275 279 284 287 285 285 286 287 288 290 292 293 294 297 301 307 313 314 314 314 314 313 312 312 312 311 312 312 314 314 314 313
280 273 279 283 284 284 284 285 277 277 267 264 273 275 278 281 281 283 283 285 287 289 291 292 293 296 300 305 308 309 308 308 309 309 309 306 306 305 305 306 305 305 305 306
282 277 277 281 279 279 280 281 282 281 278 272 270 274 282 280 282 281 283 285 287 288 290 292 293 295 298 299 303 304 305 305 304 304 304 302 301 301 301 300 300 299 299 300
281 280 272 275 279 281 281 280 280 275 273 276 277 275 283 282 283 283 283 285 287 289 291 292 295 295 294 297 297 299 299 300 301 301 300 299 299 298 298 297 297 297 296 296
283 274 264 272 279 279 278 281 281 280 279 276 273 273 283 283 283 283 282 284 286 288 289 290 292 292 292 292 294 294 295 296 298 298 298 296 296 295 294 293 294 293 293 293
285 277 273 269 274 277 276 276 279 279 276 275 276 276 278 280 280 281 282 284 286 286 287 288 289 289 289 289 290 291 291 292 293 293 292 291 291 291 291 292 291 291 291 291
278 266 275 276 277 277 277 277 278 277 278 275 276 275 278 279 279 279 281 285 285 285 285 286 286 287 287 287 287 289 290 290 291 290 290 290 290 291 291 291 290 290 290 290
277 266 269 264 275 276 275 277 277 278 278 276 276 276 281 281 279 279 281 283 284 284 284 285 285 285 286 286 286 286 287 288 289 288 288 288 289 289 289 289 289 289 289 289
271 265 262 261 270 271 264 272 277 278 277 278 274 278 280 279 280 279 280 281 282 283 283 283 284 284 285 285 286 285 285 286 286 287 287 287 287 287 287 287 287 287 287 287
270 264 260 261 260 259 272 275 278 278 277 279 280 280 281 281 279 281 282 282 282 283 283 283 284 284 285 285 285 285 285 284 284 284 284 285 286 286 286 286 285 286 285 285
278 272 261 262 253 266 272 275 277 277 276 280 280 280 281 281 280 279 283 284 284 284 284 284 284 284 284 284 284 284 283 283 283 282 282 283 284 284 284 284 284 284 285 284
278 276 267 265 258 259 271 278 280 279 270 280 282 281 280 281 276 277 285 286 287 288 287 285 285 284 283 283 283 281 280 280 280 281 282 283 283 283 283 283 284 284 284 284
274 271 263 266 261 265 273 279 280 267 272 280 282 282 281 279 280 283 289 289 288 287 287 287 285 282 280 281 283 280 278 277 278 280 281 281 282 282 282 282 283 283 283 283
269 267 265 259 258 263 276 278 275 278 281 283 282 282 282 283 286 288 289 287 286 283 282 283 281 279 278 277 279 278 275 275 276 278 278 278 278 280 280 280 280 279 281 279
270 272 269 270 270 278 279 280 281 283 282 282 282 283 285 286 286 287 285 284 282 281 281 280 279 278 275 274 274 275 272 273 274 275 274 275 275 277 277 278 278 278 278 278
274 276 273 273 276 277 279 280 282 282 283 284 284 284 285 286 286 285 284 283 282 281 280 277 276 275 273 271 270 269 269 269 269 270 271 273 272 273 274 275 277 277 277 277
275 277 275 273 278 278 280 281 283 282 282 283 283 284 285 285 283 284 284 282 282 281 277 274 273 272 270 269 267 264 265 266 269 270 270 271 271 270 271 273 274 276 278 278
275 275 276 275 280 280 280 283 283 283 282 282 283 282 283 284 284 283 282 282 278 276 272 271 270 268 265 264 263 261 260 262 262 268 269 269 269 269 270 269 271 277 280 283

GFSCGP_sfc_thetae_234.txt.gz
Theta_e
293 291 287 288 289 289 287 286 285 287 290 289 289 290 292 295 295 294 296 298 299 299 303 306 308 309 311 308 307 316 325 330 329 326 325 325 325 328 328 329 331 332 330 329
292 287 289 290 289 288 287 286 286 288 289 289 289 289 291 294 294 294 295 296 297 299 301 303 305 307 309 312 307 315 323 330 329 328 327 326 326 326 327 331 331 330 330 330
289 288 290 289 289 287 287 286 284 284 288 289 289 288 289 293 294 295 296 296 295 296 298 301 302 302 306 311 312 315 323 330 331 329 328 327 327 327 326 327 329 330 330 329
288 289 288 288 286 288 284 288 286 285 286 284 289 282 287 290 290 292 294 295 293 294 297 300 298 300 303 308 317 318 324 330 330 329 327 324 324 323 326 328 327 327 327 329
285 287 287 287 287 288 285 289 286 286 285 283 286 284 286 290 286 289 292 294 293 294 295 297 297 300 303 309 319 321 325 329 329 329 327 325 324 328 328 328 327 328 328 324
287 290 290 289 289 289 290 288 286 286 285 281 283 283 284 285 286 288 291 293 293 293 294 295 297 299 302 310 315 323 323 327 328 327 327 326 324 324 323 323 321 318 317 317
284 285 289 291 288 289 288 284 281 279 280 279 283 282 284 288 289 289 289 292 292 294 293 293 294 297 301 306 312 322 323 322 324 324 323 322 320 317 315 315 314 314 314 314
282 280 285 289 288 286 286 285 281 274 276 278 283 280 284 291 291 291 293 293 293 293 293 294 295 297 300 309 315 318 318 318 317 315 314 315 316 316 316 314 314 314 314 315
281 280 287 289 290 289 285 283 287 280 277 277 282 284 288 290 289 290 291 291 290 290 291 293 296 296 298 305 307 310 311 310 310 310 309 307 307 308 307 308 309 309 311 310
283 280 284 287 290 290 288 289 281 282 273 273 278 279 281 284 285 287 289 289 289 290 291 292 295 295 297 298 304 306 307 306 306 306 305 305 304 304 304 303 302 302 304 305
286 283 281 285 284 284 285 283 284 284 281 275 274 279 285 284 286 286 288 289 290 288 290 291 292 293 294 296 296 300 302 302 303 303 303 302 301 300 300 299 298 298 298 299
286 283 280 281 285 287 288 283 284 280 276 280 279 279 286 287 287 287 288 289 291 290 292 293 291 291 291 293 293 293 295 296 299 298 298 297 297 297 295 296 296 297 296 296
286 281 277 278 282 284 284 285 284 283 282 278 276 280 286 288 287 288 287 289 290 290 290 291 291 290 289 291 292 292 292 293 294 294 294 294 293 293 292 292 293 294 294 294
287 282 278 277 279 283 279 281 282 283 279 279 280 282 285 285 285 287 287 289 289 289 289 290 290 290 290 290 290 291 291 292 292 291 291 292 292 293 293 293 292 293 293 293
283 277 279 279 280 280 280 279 281 280 282 279 281 281 283 284 284 285 286 288 288 287 287 288 288 288 289 289 290 291 291 291 291 291 290 291 292 292 292 292 291 292 292 292
280 275 275 272 277 278 277 280 281 281 282 282 282 281 286 286 285 287 286 286 286 286 287 287 287 288 287 288 289 289 290 290 290 289 289 290 290 291 291 291 290 290 290 291
278 274 274 273 272 274 273 275 280 282 284 284 279 283 286 285 284 284 285 285 285 286 286 286 286 287 287 287 288 287 288 289 289 288 289 289 290 289 289 290 289 289 289 290
274 273 272 273 269 269 277 280 283 283 283 285 284 284 285 285 284 285 285 285 285 286 286 286 286 286 287 288 287 287 288 287 287 287 286 287 288 288 288 288 288 288 288 288
281 276 269 272 272 274 276 278 281 281 282 285 285 285 286 285 285 284 287 288 287 287 287 287 287 287 287 286 286 286 286 286 285 285 285 285 286 286 287 287 287 288 288 287
279 279 277 269 271 271 277 281 285 285 277 285 286 286 284 284 280 285 287 287 288 288 287 287 287 288 286 285 286 284 283 283 282 282 283 284 285 285 285 286 286 287 287 286
276 276 273 270 271 275 278 284 285 275 278 286 287 287 285 283 287 288 289 288 289 288 288 287 285 283 281 281 284 282 280 278 278 280 281 282 282 283 284 285 285 286 286 286
275 273 272 269 269 272 280 282 280 283 285 288 288 287 286 287 288 289 289 289 288 288 287 286 284 282 280 279 280 279 277 277 277 279 279 279 279 281 282 283 284 283 284 284
275 278 275 276 277 281 285 285 287 288 287 287 288 288 288 288 287 288 288 289 288 287 285 283 283 280 277 276 275 276 274 274 275 276 275 276 277 278 279 281 282 283 283 283
277 279 277 276 280 280 283 284 286 288 288 289 290 289 289 288 289 288 288 289 286 285 284 282 280 279 277 274 272 271 272 272 272 274 275 276 276 276 277 279 280 282 281 282
279 279 278 277 280 281 283 285 287 286 287 288 288 289 290 289 288 288 287 287 286 285 283 280 279 278 275 273 271 268 268 269 272 274 274 275 276 275 276 277 278 279 281 282
279 279 279 279 284 285 285 286 287 286 286 288 287 286 288 289 288 288 287 287 286 284 281 278 277 275 273 271 269 267 265 266 269 274 274 273 274 274 274 275 276 278 279 282

GFSCGP_sfc_thetae_237.txt.gz
Theta_e
298 294 290 290 292 292 291 289 288 290 292 291 291 292 293 296 296 296 296 297 298 299 302 304 306 309 309 310 311 313 307 313 330 329 326 326 326 328 330 332 332 332 331 331
295 289 291 292 292 291 290 288 288 290 291 291 291 291 294 295 295 296 296 297 298 299 299 300 303 305 306 307 309 311 311 311 326 330 328 328 327 328 328 330 332 332 332 331
291 290 292 292 290 289 289 288 287 286 290 292 291 290 291 295 296 296 297 297 298 297 297 298 299 301 303 303 305 310 313 312 324 330 328 327 327 327 325 326 327 330 332 331
290 292 290 290 288 290 286 290 288 287 288 285 291 282 290 292 292 293 295 295 297 297 297 296 297 298 300 301 303 308 313 315 322 331 327 325 323 321 324 326 328 329 330 329
288 289 289 288 288 291 287 290 289 288 288 285 287 285 289 291 288 290 293 295 296 295 295 295 296 297 299 302 304 308 317 318 327 330 327 325 324 325 326 328 327 328 327 327
289 293 292 290 291 291 291 289 288 288 287 282 285 284 285 286 288 290 293 294 293 294 294 295 297 298 300 305 308 313 318 321 328 327 326 325 324 324 323 319 315 315 316 317
287 287 291 292 289 291 290 287 283 281 281 280 285 283 286 289 291 291 292 293 292 293 293 294 295 295 297 303 314 318 319 321 322 320 320 319 318 317 316 315 314 314 313 313
285 282 287 291 289 288 287 287 282 276 278 280 285 281 286 291 293 294 294 294 293 293 294 293 294 295 296 299 306 309 310 309 310 310 310 311 311 311 311 309 311 312 312 313
283 282 289 290 292 291 287 285 289 282 280 278 283 285 290 292 291 292 292 292 292 291 293 293 293 294 295 296 299 304 305 307 308 308 307 306 306 305 305 305 305 305 306 308
286 281 286 288 291 291 289 290 283 284 276 275 280 281 283 285 287 289 290 291 292 293 293 292 292 292 295 295 295 297 300 301 303 304 304 303 302 303 303 302 300 300 301 302
288 286 283 286 286 285 286 285 285 285 283 277 275 281 287 286 288 288 290 291 291 291 293 293 291 292 293 295 294 294 293 294 296 298 298 298 298 298 298 297 297 297 297 298
288 286 282 283 287 288 288 285 286 281 278 281 279 280 288 288 290 290 290 291 292 292 293 293 292 291 291 291 293 292 292 292 292 294 294 294 295 294 294 294 295 296 296 296
288 284 279 279 284 286 285 286 286 285 284 279 277 281 289 289 290 290 290 291 291 291 291 292 291 291 290 291 292 292 292 291 292 292 292 292 292 292 293 293 294 295 295 295
289 284 282 280 281 285 281 284 284 284 280 280 280 282 286 287 287 289 289 291 291 290 289 290 290 290 291 291 292 291 291 291 291 291 291 291 291 292 293 293 293 293 294 293
286 280 281 281 282 282 283 281 282 281 283 279 282 282 286 287 286 288 289 290 289 288 288 288 288 289 289 290 290 291 291 292 292 291 291 291 292 292 292 292 292 292 292 293
283 278 278 275 278 279 278 281 282 282 283 283 284 283 288 288 288 288 289 288 288 288 288 288 288 288 288 288 289 289 290 290 291 290 289 290 290 290 290 291 291 291 291 292
281 277 277 276 275 276 275 277 280 281 284 284 281 285 288 286 286 287 287 287 287 287 287 287 288 288 288 288 289 288 289 290 289 289 289 289 290 290 290 290 290 290 290 291
278 279 278 275 273 271 279 282 283 282 284 287 285 286 287 287 287 287 288 287 287 287 287 288 288 288 289 289 289 289 289 289 288 288 287 287 289 289 289 289 289 289 289 289
283 279 273 274 274 278 277 278 281 281 281 287 287 287 287 287 287 286 288 289 288 288 289 289 290 291 290 289 288 288 287 287 286 284 284 285 286 287 288 288 288 288 289 288
281 282 280 272 274 274 278 283 288 287 278 288 289 287 286 286 281 287 289 288 288 289 289 289 289 289 286 284 288 285 283 282 280 281 282 283 284 285 285 286 286 287 287 286
277 277 276 275 275 279 282 285 288 277 280 289 289 288 287 284 288 290 290 289 290 290 290 289 288 285 283 282 284 282 281 278 279 280 281 281 281 282 284 285 285 285 286 286
276 276 275 276 274 273 285 284 281 285 288 289 289 289 288 289 289 289 289 289 289 289 290 290 287 284 281 280 281 280 278 278 279 280 279 279 280 281 282 283 284 284 284 284
277 281 278 279 279 282 287 286 289 290 289 289 290 290 290 289 289 289 289 289 289 290 288 286 285 283 280 278 277 278 276 276 276 277 276 277 278 279 280 281 282 283 283 283
280 282 279 278 282 281 285 286 288 290 290 291 292 291 291 289 290 289 288 289 290 288 286 284 282 281 280 277 275 273 274 273 272 275 276 277 277 277 279 280 281 281 281 281
281 280 279 279 281 282 284 287 288 289 291 290 291 290 291 291 289 289 288 289 289 287 285 283 281 281 279 276 274 271 271 270 273 275 276 277 278 277 278 278 279 279 281 282
281 280 279 280 284 284 284 287 289 288 288 290 289 288 290 290 289 289 288 289 287 285 284 281 280 278 277 274 273 270 267 267 269 276 276 275 275 276 276 276 277 279 279 281

GFSCGP_sfc_thetae_243.txt.gz
Theta_e
292 285 281 284 285 287 284 283 281 284 288 286 285 286 287 288 289 288 288 290 292 294 296 298 299 299 300 300 301 301 301 301 302 305 306 313 322 326 326 326 326 329 329 328
285 281 287 290 290 287 286 282 281 285 288 287 285 285 288 288 288 288 289 289 291 293 294 296 297 297 298 299 300 300 301 303 302 304 307 311 322 326 326 327 327 327 329 329
283 286 291 289 287 286 284 282 281 282 287 287 284 282 285 287 289 290 290 290 291 292 294 295 295 296 297 297 296 298 301 304 303 304 306 309 321 325 325 325 326 328 328 328
286 289 288 286 285 287 282 287 287 286 282 277 284 271 282 284 286 288 287 289 289 292 294 294 294 294 294 295 296 297 301 311 305 304 305 307 317 320 324 325 327 327 328 327
283 285 285 285 286 288 285 288 286 285 282 278 280 274 279 284 282 285 287 288 289 291 293 293 293 294 294 295 294 296 302 309 305 305 307 309 318 322 324 324 323 322 318 319
286 291 289 287 289 289 290 287 285 284 282 273 280 275 271 277 281 284 286 287 288 290 292 293 293 294 294 294 293 295 299 304 309 307 309 311 320 321 317 314 313 312 312 312
283 285 288 291 286 288 287 281 273 271 272 274 281 275 277 284 285 285 286 286 286 288 291 291 291 291 293 293 291 293 297 298 304 310 312 314 316 314 312 311 311 309 309 308
277 275 285 289 286 284 284 282 273 266 271 275 280 274 280 286 287 288 288 287 287 287 290 290 290 291 292 291 291 292 294 295 297 298 303 308 309 308 308 308 307 307 306 305
278 278 287 289 289 288 283 280 285 278 269 273 275 280 285 286 285 286 286 286 285 286 288 289 290 291 292 292 293 292 293 294 295 296 296 298 301 300 301 302 303 303 303 303
284 276 283 287 289 288 286 287 278 277 266 266 274 276 276 280 282 284 284 283 284 285 286 288 289 290 292 292 293 293 293 292 294 294 295 295 295 296 296 296 296 296 297 297
284 280 280 284 282 282 282 281 282 281 278 274 271 273 281 282 283 282 284 284 283 284 284 287 287 289 290 291 292 292 292 291 292 293 294 293 293 293 294 293 294 294 294 294
284 282 276 279 284 286 285 283 283 275 276 277 277 274 285 284 284 285 284 285 284 284 284 285 285 286 287 288 289 290 291 291 291 292 292 292 292 292 292 292 292 292 292 292
285 277 270 276 280 283 281 283 284 282 280 277 273 274 285 285 284 285 284 283 283 283 283 284 284 285 285 286 287 287 288 289 290 290 290 290 290 291 291 291 291 292 291 290
288 281 278 275 279 281 279 281 282 281 276 276 276 276 280 282 282 283 283 282 282 282 283 283 283 283 284 285 285 286 286 288 289 289 289 289 289 290 290 290 291 291 291 290
282 270 279 279 279 280 281 281 281 279 279 276 277 277 281 282 281 282 284 284 283 282 283 283 283 283 283 285 285 286 286 286 287 287 288 288 289 289 289 290 290 291 290 290
281 272 275 273 277 277 277 279 281 281 281 280 278 277 283 282 283 282 284 284 283 282 283 283 283 284 284 284 284 285 285 285 285 285 285 287 288 288 288 289 289 289 289 289
277 273 271 267 275 274 270 275 278 281 281 282 277 280 282 281 282 283 283 284 283 283 283 283 283 284 284 283 284 283 283 284 283 282 283 284 285 286 286 287 287 287 287 287
276 275 273 268 271 264 278 281 278 281 283 282 281 282 283 283 283 284 285 284 283 284 284 285 285 285 284 284 283 282 282 281 280 280 280 281 282 283 284 285 285 286 285 285
282 278 269 269 268 274 277 278 278 277 278 284 282 283 283 283 282 280 285 285 284 284 285 286 286 283 280 281 282 280 279 279 279 278 279 279 280 281 282 282 282 283 284 283
280 280 274 267 269 267 278 278 283 282 274 283 285 283 282 282 276 277 284 285 285 286 286 286 285 282 280 279 280 278 277 276 276 278 279 279 279 279 279 280 280 282 282 282
270 271 269 271 268 272 280 281 283 272 278 282 286 285 283 280 280 283 286 285 286 287 287 288 284 280 278 278 279 276 275 275 277 278 278 278 278 279 279 279 281 281 281 281
273 270 269 268 264 269 282 282 278 281 283 284 286 286 284 284 284 285 286 285 286 286 287 285 281 279 277 277 278 276 274 275 276 277 276 275 276 278 279 277 279 279 280 280
274 276 272 275 275 281 285 282 285 285 285 284 285 286 286 285 284 285 285 285 286 286 284 283 281 278 276 276 276 275 273 273 273 272 271 272 273 276 276 276 277 279 280 280
278 280 276 277 280 281 283 284 285 286 285 285 286 287 287 285 285 284 285 285 284 284 282 281 278 278 276 272 271 270 271 270 266 266 269 271 271 272 273 275 276 279 278 279
278 279 277 276 280 280 281 284 285 285 286 285 285 286 287 286 284 285 284 284 284 284 282 279 277 276 274 271 268 265 266 265 268 268 269 269 270 267 270 272 272 275 279 280
278 277 278 277 283 282 282 283 285 285 285 286 285 284 285 286 285 285 284 284 283 282 278 275 275 274 271 269 267 262 261 263 264 267 268 267 268 267 268 268 269 276 279 281

GFSCGP_sfc_thetae_246.txt.gz
Theta_e
290 284 280 283 284 285 283 280 279 282 287 284 283 284 285 286 287 286 287 287 288 291 294 296 297 297 297 297 297 297 297 299 301 302 300 302 304 311 324 326 326 327 328 328
284 281 286 289 288 286 284 281 280 283 287 285 283 284 286 286 286 286 287 287 288 290 292 294 295 295 296 295 295 295 296 298 300 303 303 302 306 314 321 327 327 326 327 328
280 285 290 288 285 284 282 281 280 280 285 285 282 279 283 285 286 287 288 287 289 289 290 292 293 293 294 294 294 294 294 297 301 306 305 303 306 308 316 324 325 325 325 327
284 288 287 284 284 285 281 285 285 284 281 277 282 271 281 282 284 286 286 286 287 288 290 291 292 292 293 294 295 293 295 299 304 310 304 301 303 307 316 323 325 325 326 326
282 284 284 283 284 287 283 287 285 284 281 277 278 273 277 282 281 283 285 286 286 287 290 291 291 293 294 294 293 293 297 299 307 305 302 302 304 309 318 320 319 315 315 316
283 289 288 286 288 288 289 286 284 283 279 271 278 275 272 275 279 283 285 285 286 287 288 291 292 293 293 294 293 292 296 297 301 307 305 305 306 311 313 312 311 311 311 312
282 283 286 289 285 287 286 280 273 271 271 272 279 275 276 282 284 284 284 284 284 286 287 289 290 291 291 292 292 294 295 295 297 299 301 303 309 311 310 309 307 305 304 305
276 274 284 288 285 283 284 282 274 266 270 274 279 274 279 284 286 286 286 284 284 284 286 289 289 290 291 291 292 293 294 294 295 296 296 298 299 301 302 304 303 303 302 301
276 277 286 288 288 286 283 280 284 277 269 272 275 279 283 284 283 284 284 283 282 283 284 288 289 289 290 290 292 292 294 293 294 294 295 295 296 296 295 296 298 298 298 298
282 276 282 286 287 287 284 286 277 277 267 267 274 276 276 280 281 282 281 281 282 283 283 285 286 288 288 290 291 292 293 293 293 294 294 294 294 294 294 293 293 294 295 295
283 279 279 283 281 280 282 280 282 281 279 272 270 273 279 281 282 281 281 282 281 282 282 283 284 285 287 288 288 290 291 291 291 292 293 293 293 293 293 292 292 292 292 293
283 281 275 278 283 285 284 282 282 276 275 277 276 274 284 284 283 283 282 282 282 281 282 283 283 284 284 285 286 286 288 289 290 291 291 291 292 292 292 291 291 291 291 291
284 276 270 274 279 282 280 283 283 282 280 277 273 273 284 284 283 283 281 281 281 280 281 282 282 282 283 284 285 285 286 286 288 289 289 289 290 290 290 290 290 290 290 289
287 280 276 273 276 280 279 281 282 282 276 276 277 276 279 282 282 282 281 281 281 280 281 281 282 282 283 284 284 284 285 285 286 287 287 287 287 288 289 290 290 290 289 288
283 271 278 278 279 279 280 280 281 280 280 276 276 278 281 282 282 283 281 281 281 281 280 281 281 282 282 283 283 284 283 284 284 285 285 285 287 287 288 288 288 288 288 287
282 274 276 272 277 277 277 280 281 282 282 279 278 278 282 284 283 282 282 282 281 281 281 281 282 282 282 283 282 282 281 281 282 281 282 284 285 285 286 287 287 287 286 285
279 276 274 268 274 273 268 275 279 281 282 282 278 281 281 281 283 283 283 282 281 281 281 282 282 282 282 281 281 279 279 280 280 279 280 280 282 283 283 285 285 285 284 284
276 275 270 266 268 263 276 281 280 281 283 284 281 281 284 284 285 285 285 283 282 282 282 283 283 282 281 281 280 279 279 278 279 279 279 279 280 281 282 282 282 283 283 282
280 277 267 266 261 272 276 278 278 278 279 284 284 283 283 283 283 281 284 285 284 283 284 284 283 280 279 279 278 278 277 278 278 278 278 278 279 279 280 280 280 281 281 281
280 279 271 263 263 264 276 279 282 281 275 282 286 283 282 283 278 279 284 284 283 285 285 284 281 280 278 279 278 277 276 276 276 277 278 278 278 279 278 279 280 281 281 281
268 267 268 262 263 270 278 280 283 275 279 281 287 285 283 283 282 282 285 284 286 286 285 285 281 278 277 278 277 276 275 275 276 277 278 278 278 279 278 279 280 280 281 281
271 269 265 262 261 267 281 281 277 281 283 283 286 286 285 283 284 285 285 284 285 285 285 282 279 278 277 278 277 276 274 275 275 276 275 274 274 277 278 276 278 278 281 280
272 274 271 274 274 280 283 282 284 284 285 284 286 286 286 284 284 284 284 285 286 286 284 282 279 277 275 275 276 274 273 273 273 271 270 271 272 275 275 274 277 279 279 279
276 278 275 276 279 280 281 284 284 286 285 285 287 286 286 284 285 284 285 286 285 284 283 281 278 276 275 270 271 270 271 270 266 267 268 270 270 271 271 274 275 278 278 278
277 279 277 275 279 279 280 283 285 285 285 285 286 287 286 285 284 285 285 285 285 285 282 279 277 276 273 270 267 265 266 265 268 267 268 268 269 266 268 271 270 275 279 279
278 276 277 276 280 281 281 283 285 285 284 286 286 285 286 286 285 286 285 286 285 282 279 277 275 273 271 268 266 263 261 263 266 267 267 267 266 265 267 266 268 274 278 280

GFSCGP_sfc_thetae_252.txt.gz
Theta_e
286 281 277 280 281 281 281 278 278 280 285 282 281 281 283 284 284 283 284 284 285 286 289 291 293 294 295 296 295 295 295 297 298 298 297 297 299 303 303 304 307 308 311 324
283 279 283 286 285 283 281 280 277 281 285 283 280 281 283 284 283 283 284 283 284 286 288 289 292 293 294 294 295 295 296 297 298 299 301 301 300 303 305 307 307 309 315 323
279 282 287 285 282 282 281 279 278 278 282 282 279 278 280 283 284 285 284 284 284 284 286 288 290 292 293 293 294 295 296 297 298 300 305 305 303 304 304 303 305 312 320 323
282 286 284 283 283 281 280 283 283 283 277 273 279 271 278 280 282 283 282 282 283 284 286 289 290 290 292 292 294 296 296 297 299 301 305 303 302 301 304 308 311 312 313 317
281 283 283 282 282 284 281 284 283 282 279 275 276 272 274 280 280 281 282 282 282 283 285 288 289 290 292 293 293 295 296 297 298 299 300 301 302 304 302 303 302 303 305 306
284 288 285 284 285 285 287 283 282 280 278 271 275 272 274 275 279 281 280 281 283 283 284 287 290 291 290 292 292 294 296 296 297 298 298 298 297 297 296 297 298 298 298 300
282 282 284 287 283 286 284 279 272 270 271 272 277 274 278 280 282 282 281 280 281 282 282 285 287 288 288 289 290 292 293 294 296 296 296 296 297 297 296 296 295 296 296 296
278 276 283 287 283 281 282 279 274 266 268 272 278 274 279 282 284 283 282 281 281 281 282 283 286 287 287 288 289 289 291 292 293 294 295 295 295 296 295 295 295 295 295 295
276 278 284 286 286 284 281 279 280 275 265 270 274 278 281 282 281 282 281 281 279 280 281 282 283 284 284 285 287 288 289 290 291 291 292 292 292 293 293 294 294 293 293 294
282 278 282 285 286 285 282 284 277 275 265 265 272 275 276 279 280 281 280 279 280 279 281 281 282 283 284 284 285 286 287 288 290 290 291 291 291 291 291 291 291 291 292 292
283 280 279 283 281 280 281 279 280 278 276 271 269 274 280 281 282 281 280 281 281 280 280 281 281 282 283 284 284 285 285 286 287 288 289 289 289 290 290 289 289 289 290 290
285 281 275 279 281 284 283 281 281 274 274 276 275 275 283 282 283 283 280 281 280 281 280 280 281 282 282 282 283 283 284 284 285 286 287 287 288 288 287 287 287 288 288 289
285 276 271 274 278 281 280 282 282 279 279 276 274 275 283 282 282 282 280 280 280 280 280 280 281 281 281 281 281 281 281 282 284 285 285 285 285 286 286 286 286 286 286 287
288 280 278 275 276 279 278 280 282 280 275 277 276 277 279 281 281 281 280 280 279 280 280 280 280 281 281 281 280 279 280 280 281 282 282 283 283 284 285 285 285 284 285 285
283 276 279 279 279 280 280 280 280 279 281 276 278 279 281 283 283 284 283 281 280 280 280 280 280 280 280 280 279 279 278 279 279 279 280 280 282 283 284 284 284 284 283 283
280 273 275 272 277 278 277 279 280 281 282 280 280 279 284 286 285 284 282 281 281 280 280 281 281 282 282 281 279 278 277 278 279 278 279 280 280 281 281 282 282 282 282 281
277 272 269 267 273 273 269 274 278 281 283 283 278 284 284 283 284 284 283 282 282 281 281 281 281 282 281 280 278 276 277 278 278 278 279 279 280 280 280 281 281 280 280 280
274 270 265 265 267 266 279 278 281 281 283 285 283 283 285 286 286 288 287 284 283 282 282 282 282 281 281 279 276 277 278 277 278 278 278 278 279 279 280 280 280 280 279 279
279 275 264 266 260 273 279 277 277 277 278 283 284 284 284 284 284 283 288 287 285 284 283 283 283 282 279 277 277 277 277 277 277 277 277 277 278 278 279 279 280 280 280 280
279 276 274 259 262 263 276 278 280 280 275 281 284 285 282 284 279 284 287 286 285 284 284 283 283 280 278 276 277 277 276 276 276 277 278 277 278 277 277 277 279 281 281 280
267 266 268 260 262 269 277 279 279 272 278 279 282 285 283 283 286 286 287 285 285 284 284 283 280 279 278 277 277 277 276 275 276 277 276 276 276 277 277 277 278 279 280 280
273 269 264 259 261 268 279 279 276 280 280 281 281 284 285 284 284 286 286 284 283 284 285 282 279 279 278 277 277 276 275 275 275 275 274 272 273 275 275 274 277 277 278 278
274 276 272 274 275 281 282 279 281 282 281 280 281 284 286 282 283 285 285 284 284 284 284 282 279 277 276 276 276 275 274 274 272 270 268 269 270 273 273 272 274 274 276 276
275 278 274 275 279 280 280 281 282 282 283 283 283 284 284 282 284 285 284 284 284 285 283 280 277 276 275 273 273 272 272 271 268 266 266 268 268 269 269 271 273 274 276 278
277 278 275 275 279 279 281 281 282 282 283 283 283 283 284 284 284 284 284 284 285 285 283 280 278 276 275 272 270 268 269 269 268 267 266 266 267 264 266 269 268 273 275 279
277 276 278 276 281 282 283 282 283 282 283 283 283 282 283 285 284 284 284 285 285 284 282 279 277 276 273 271 269 266 266 268 268 267 266 265 264 263 265 265 266 274 277 279